Simultaneous Nadir Overpasses (SNOs) Predictions

Prediction of SNOs between AQUA and METOP-B Satellite Orbit:

Table of predicted SNOs for the next 14.0 days since TLE Epoch: 4/19/2014
Index Date (AQUA) Time (AQUA) Lat,Lon (AQUA) SZA (AQUA ) Date (METOP-B) Time (METOP-B) Lat,Lon (METOP-B) SZA (METOP-B ) Distance(km) Time Diff (sec)
1 04/20/2014 01:00:09 73.74, 159.56 62.30 04/20/2014 00:59:40 73.74, 159.46 62.30 3.22 29
2 04/20/2014 01:49:36 -73.83, -32.99 117.63 04/20/2014 01:50:21 -73.81, -33.05 117.65 3.06 45
3 04/22/2014 19:44:40 -73.11, 59.70 119.32 04/22/2014 19:43:34 -73.07, 57.04 119.27 86.14 66
4 04/22/2014 20:34:20 73.76,-134.02 61.36 04/22/2014 20:33:59 73.77,-134.04 61.37 1.56 21
5 04/22/2014 21:23:47 -73.85, 33.43 118.57 04/22/2014 21:24:40 -73.85, 33.46 118.57 0.66 53
6 04/25/2014 15:18:56 -73.52, 125.32 119.82 04/25/2014 15:17:45 -73.45, 124.29 119.85 33.56 71
7 04/25/2014 16:08:29 73.80, -67.66 60.47 04/25/2014 16:08:17 73.80, -67.56 60.47 2.98 12
8 04/25/2014 16:57:55 -73.83, 99.92 119.51 04/25/2014 16:58:59 -73.82, 99.82 119.53 3.42 64
9 04/28/2014 10:53:08 -73.74,-168.69 120.49 04/28/2014 10:51:59 -73.71,-168.68 120.51 2.64 69
10 04/28/2014 11:42:36 73.77, -1.12 59.53 04/28/2014 11:42:37 73.77, -1.23 59.53 3.53 1
11 04/28/2014 12:32:04 -73.90, 166.24 120.34 04/28/2014 12:33:17 -73.89, 166.39 120.37 4.83 73
12 05/01/2014 06:27:14 -73.72,-102.18 121.38 05/01/2014 06:26:18 -73.72,-102.26 121.37 2.30 56
13 05/01/2014 07:16:43 73.81, 65.26 58.71 05/01/2014 07:16:55 73.82, 65.32 58.72 2.02 12




NCC Satellite Simultaneous Nadir Overpasses (SNOs) Prediction Service
